Torna al catalogo

STARLINK-36076

AttivoComunicazioniVLEO
NORAD 66588·PAYLOAD·🇺🇸 United States

Lanciato Nov 22, 2025 da Cape Canaveral Space Force Station

Loading…

Prossimi Passaggi (prossime 24 ore)

TLE

AggiornatoSource: CelesTrak SupGP

Epoca: Sep 14, 2026, 21:36 UTC

1 66588C 25270A   26257.90048611  .00040412  00000+0  14638-2 0  2571
2 66588  43.0019  67.3425 0001861 273.0987 187.7143 15.27555619    19

Traccia STARLINK-36076 in tempo reale con AllMySat

Download on the App Store